Airport details for: EHEH (Netherlands)

Metar

EHEH 140933Z AUTO 22017KT 200V270 9999 FEW013 BKN022 BKN026 05/02 Q0993 WHT 23010G20KT 9999 SCT025 BKN030 TEMPO 23015G25KT 4000 SHRA SCT010 SCT015CB BKN025

General details

ICAO: EHEH
IATA: EIN
Name (city): Eindhoven
Major:
Country: Netherlands
vACC: Dutch VACC
Description:
Scenery links:
FS9 scenery: Download
FSX/P3D scenery: Download
XP scenery:
Elevation: 74 ft.
Transition altitude: 3000 ft.
MSA: 9800 ft.
Latitude: 51.45
Longitude: 5.374445
EHEH Charts
EHEH Notams
EHEH Online stations

Runways

Number Course Length Elevation Lat Lon ILS ILS freq ILS FAC GP
03 34° 9843ft / 3000 m 74ft 51.440925 5.364192 109.75 34° 3.0°
21 214° 9843ft / 3000 m 67ft 51.459342 5.384831 109.75 214° 3.0°